[[{"header":{"parameterUnit":"m.s-1","parameterCategory":1,"la1":30.2991,"la2":30.254,"lo1":-89.0895,"lo2":-89.0444,"dy":0.0017,"dx":0.0017,"nx":28,"ny":28,"refTime":"2023-07-31T09:00:00:Z","depth":0,"parameterNumber":2,"parameterNumberName":"U-component_of_WINDS"},"data":[0,0,0,0,0,0,0,0,0,0,0,0,0,0,0,0,0,0,0,0,0,0,0,0,0,0,0,0,0,0,0,0,0,0,0,0,0,0,0,0,0,0,0,0,0,0,0,0,0,0,0,0,0,0,0,0,0,0,4.2012,4.2014,0,4.2166,4.2167,4.2169,4.2107,4.2104,4.21,4.2096,4.2256,4.2264,4.2271,0,0,0,0,0,0,0,0,0,0,0,0,0,4.1667,4.1673,4.2012,4.2014,4.2016,4.2165,4.2168,4.217,4.2108,4.2103,4.2099,4.2095,4.2254,4.2263,4.2272,0,0,0,0,0,0,0,0,0,0,0,0,0,4.1818,4.1675,4.2012,4.2003,4.2004,4.2165,4.2168,4.217,4.2109,4.2103,4.2098,4.2093,4.2251,4.2262,4.2273,4.2453,0,0,4.2308,4.2313,0,0,0,0,0,0,0,0,4.181,4.1831,4.2002,4.2004,4.2005,4.2112,4.2104,4.2265,4.211,4.2069,4.2096,4.209,4.2213,4.2227,4.2268,4.2461,4.2468,4.2309,4.2316,4.2321,4.2325,0,0,0,0,0,0,0,4.1799,4.1824,4.2073,4.2005,4.2007,4.1992,4.2007,4.2135,4.217,4.2072,4.2068,4.2087,4.2213,4.2257,4.2271,4.247,4.2309,4.2319,4.2326,4.2331,4.2816,4.2822,0,0,0,0,0,0,4.1788,4.1816,4.2068,4.2077,4.1892,4.2002,4.202,4.2083,4.2168,4.2176,4.2091,4.2083,4.224,4.2258,4.2277,4.2492,4.2321,4.2332,4.2339,4.281,4.2818,4.2824,0,0,0,0,0,0,4.1781,4.1811,4.2062,4.1946,4.1976,4.2014,4.2086,4.2089,4.2133,4.2183,4.2189,4.213,4.2237,4.2261,4.2409,4.2496,4.2337,4.2348,4.2803,4.2813,4.2821,4.2924,0,0,0,0,0,0,4.1771,4.1809,4.1877,4.1947,4.1983,4.2192,4.2091,4.2096,4.2153,4.2144,4.2221,4.2228,4.2234,4.2392,4.2421,4.2509,4.2357,4.2796,4.2807,4.2818,4.2913,4.2935,4.2954,0,0,0,0,0,4.1759,4.1901,4.1881,4.1912,4.2069,4.2197,4.2217,4.222,4.216,4.2229,4.2261,4.2226,4.2482,4.2408,4.2439,4.2533,4.279,4.2804,4.2817,4.2903,4.2931,4.2954,0,0,0,0,0,0,4.1842,4.191,4.1889,4.2058,4.2122,4.2186,4.2273,4.2249,4.2332,4.2321,4.2322,4.234,4.2493,4.2528,4.2444,4.271,4.2627,4.2648,4.2682,4.2708,4.2729,4.2717,4.2366,0,0,0,0,0,4.1879,4.1977,4.2032,4.2175,4.2208,4.2236,4.2291,4.2288,4.2355,4.2382,4.2424,4.2491,4.2586,4.2649,4.274,4.2917,4.2933,4.2997,4.3018,4.3035,4.3052,4.3147,4.3176,4.2869,4.2869,4.2868,0,0,4.1958,4.2008,4.2069,4.2193,4.2242,4.2343,4.2259,4.237,4.2445,4.2399,4.2541,4.2575,4.265,4.2813,4.2887,4.2847,4.314,4.3052,4.3065,4.3073,4.3164,4.3193,4.3219,4.2878,4.2876,4.2875,0,0,4.2154,4.2201,4.2325,4.2376,4.2451,4.2468,4.2498,4.2566,4.2586,4.2729,4.2696,4.2786,4.2951,4.3005,4.3054,4.3269,4.3239,4.3298,4.3407,4.35,4.3524,4.3545,4.3621,4.3648,4.3316,4.3316,4.3316,0,4.2243,4.2393,4.2392,4.2506,4.2561,4.2523,4.2648,4.2698,4.28,4.2838,4.2792,4.2997,4.3044,4.3219,4.3271,4.3313,4.3347,4.3289,4.352,4.3542,4.3562,4.3634,4.3662,4.3323,4.3322,4.3321,4.3321,0,4.2498,4.2603,4.2694,4.2791,4.2857,4.2976,4.2994,4.306,4.3051,4.3073,4.3218,4.3274,4.3375,4.3416,4.3409,4.359,4.3563,4.3519,4.3435,4.3598,4.3665,4.3693,4.3332,4.333,4.3328,4.3326,0,0,4.275,4.2844,4.2878,4.2921,4.3001,4.3082,4.3199,4.3296,4.3353,4.3424,4.3522,4.3662,4.3621,4.3677,4.3675,4.3757,4.3922,4.3702,4.3704,4.374,4.4123,4.4155,4.4187,4.3903,4.3908,4.3913,4.4117,0,4.2951,4.3155,4.3157,4.3345,4.3441,4.3406,4.3508,4.3568,4.3592,4.3678,4.3704,4.3802,4.3741,4.3775,4.3854,4.3885,4.3999,4.387,4.3994,4.3998,4.3975,4.4223,4.4258,4.4447,4.4143,4.4148,4.4151,0,4.3212,4.329,4.3487,4.3551,4.3592,4.3683,4.3772,4.3854,4.3922,4.3933,4.3995,4.3981,4.41,4.4013,4.4177,4.409,4.4141,4.4164,4.4171,4.4182,4.4084,4.424,4.4508,4.4536,4.4193,4.419,4.4187,0,4.3375,4.3529,4.3666,4.3705,4.3784,4.3848,4.3885,4.3946,4.4004,4.4082,4.4119,4.4211,4.4261,4.4332,4.4343,4.4279,4.4508,4.4422,4.452,4.452,4.4569,4.4566,4.4849,4.4604,4.4604,4.4603,4.4603,0,4.3598,4.372,4.374,4.3825,4.396,4.3962,4.4096,4.4127,4.4182,4.4272,4.4248,4.4333,4.4343,4.4431,4.444,4.4574,4.4597,4.461,4.461,4.4611,4.461,4.4644,4.4631,4.4611,4.4609,4.4608,4.4606,0,4.3802,4.3821,4.3968,4.403,4.4049,4.4145,4.4199,4.428,4.43,4.4414,4.4441,4.4474,4.4576,4.4594,4.4715,4.4721,4.4881,4.4869,4.4858,4.4856,4.4953,4.4943,4.5267,4.5309,4.5038,4.5041,4.5043,0,4.3943,4.4036,4.4107,4.4165,4.4204,4.4298,4.4356,4.4361,4.4423,4.4506,4.4577,4.4676,4.4756,4.4921,4.4956,4.5048,4.5037,4.5144,4.5051,4.5048,4.5037,4.5031,4.504,4.5162,4.5165,4.5167,4.5169,0,4.4191,4.4195,4.4279,4.4368,4.4437,4.4507,4.4573,4.4622,4.4636,4.4707,4.4811,4.4872,4.4995,4.5093,4.5185,4.5222,4.5199,4.5199,4.5226,4.5227,4.5216,4.5222,4.4906,4.5191,4.5189,4.5187,4.5186,4.5185,4.4367,4.4447,4.4509,4.4604,4.4654,4.4716,4.4794,4.4824,4.491,4.5009,4.5007,4.512,4.5184,4.5304,4.5347,4.5436,4.5402,4.5442,4.5452,4.5461,4.547,4.5203,4.5453,4.5452,4.5452,4.5451,4.5451,0,4.4612,4.465,4.4737,4.4829,4.4904,4.4874,4.4945,4.5009,4.5109,4.517,4.5248,4.5367,4.5462,4.5504,4.5598,4.566,4.5652,4.5685,4.568,4.5689,4.5496,4.5462,4.569,4.569,4.569,4.569,4.569,4.569,4.4748,4.4882,4.4893,4.5051,4.5088,4.5197,4.524,4.5297,4.5346,4.5478,4.5557,4.5583,4.5637,4.5734,4.582,4.583,4.5865,4.5903,4.5908,4.5727,4.5702,4.5679,4.5647,4.5911,4.5911,4.6093,4.6094,4.6096]},{"header":{"parameterUnit":"m.s-1","parameterCategory":1,"la1":30.2991,"la2":30.254,"lo1":-89.0895,"lo2":-89.0444,"dy":0.0017,"dx":0.0017,"nx":28,"ny":28,"refTime":"2023-07-31T09:00:00:Z","depth":0,"parameterNumber":3,"parameterNumberName":"V-component_of_WINDS"},"data":[0,0,0,0,0,0,0,0,0,0,0,0,0,0,0,0,0,0,0,0,0,0,0,0,0,0,0,0,0,0,0,0,0,0,0,0,0,0,0,0,0,0,0,0,0,0,0,0,0,0,0,0,0,0,0,0,0,0,-0.0375,-0.0375,0,-0.0398,-0.0399,-0.0399,-0.0429,-0.043,-0.043,-0.0431,-0.0454,-0.0455,-0.0455,0,0,0,0,0,0,0,0,0,0,0,0,0,-0.0356,-0.0356,-0.0375,-0.0375,-0.0375,-0.0398,-0.0399,-0.0399,-0.0429,-0.043,-0.043,-0.0431,-0.0454,-0.0455,-0.0455,0,0,0,0,0,0,0,0,0,0,0,0,0,-0.037,-0.0356,-0.0375,-0.0393,-0.0395,-0.0398,-0.0399,-0.0399,-0.0429,-0.043,-0.043,-0.0431,-0.0454,-0.0454,-0.0455,-0.0442,0,0,-0.0456,-0.0456,0,0,0,0,0,0,0,0,-0.0369,-0.0371,-0.039,-0.0392,-0.0394,-0.0412,-0.0401,-0.0413,-0.0429,-0.0416,-0.0431,-0.0431,-0.0439,-0.0441,-0.0444,-0.0443,-0.0444,-0.0456,-0.0456,-0.0456,-0.0456,0,0,0,0,0,0,0,-0.0368,-0.037,-0.0384,-0.039,-0.0393,-0.04,-0.0403,-0.0403,-0.0423,-0.0417,-0.0419,-0.0422,-0.0441,-0.0444,-0.0445,-0.0444,-0.0456,-0.0456,-0.0456,-0.0456,-0.0435,-0.0435,0,0,0,0,0,0,-0.0365,-0.0369,-0.0383,-0.0385,-0.0383,-0.04,-0.0403,-0.0405,-0.0423,-0.0427,-0.0421,-0.0423,-0.0443,-0.0444,-0.0446,-0.0432,-0.0456,-0.0456,-0.0456,-0.0436,-0.0435,-0.0434,0,0,0,0,0,0,-0.0364,-0.0366,-0.0382,-0.0378,-0.038,-0.04,-0.0401,-0.0405,-0.0408,-0.0426,-0.043,-0.042,-0.0443,-0.0445,-0.0443,-0.0433,-0.0456,-0.0457,-0.0437,-0.0436,-0.0435,-0.0404,0,0,0,0,0,0,-0.0364,-0.0365,-0.036,-0.0377,-0.038,-0.0379,-0.0401,-0.0405,-0.0408,-0.0411,-0.0427,-0.043,-0.0444,-0.0442,-0.0443,-0.0434,-0.0457,-0.0438,-0.0436,-0.0435,-0.0406,-0.0402,-0.0399,0,0,0,0,0,-0.0363,-0.0351,-0.036,-0.0361,-0.0375,-0.0378,-0.038,-0.0397,-0.0408,-0.0403,-0.0415,-0.0429,-0.0434,-0.0442,-0.0443,-0.0434,-0.0438,-0.0437,-0.0435,-0.0408,-0.0403,-0.0399,0,0,0,0,0,0,-0.0331,-0.0353,-0.0364,-0.0356,-0.0365,-0.0383,-0.0378,-0.0391,-0.0397,-0.0399,-0.0419,-0.0423,-0.0418,-0.0426,-0.0434,-0.0423,-0.0439,-0.0437,-0.0418,-0.0413,-0.041,-0.0407,-0.0457,0,0,0,0,0,-0.0324,-0.0325,-0.0344,-0.0336,-0.034,-0.0358,-0.036,-0.0372,-0.0382,-0.0386,-0.0398,-0.0407,-0.0411,-0.0413,-0.0417,-0.0408,-0.0412,-0.0403,-0.0399,-0.0396,-0.0394,-0.0391,-0.0387,-0.0429,-0.0429,-0.0429,0,0,-0.0308,-0.032,-0.0319,-0.033,-0.0338,-0.0339,-0.0361,-0.036,-0.0361,-0.0386,-0.0384,-0.0394,-0.0405,-0.04,-0.0398,-0.0406,-0.0384,-0.0394,-0.0391,-0.0391,-0.0389,-0.0385,-0.0381,-0.0428,-0.0428,-0.0428,0,0,-0.0279,-0.0288,-0.0282,-0.0291,-0.0303,-0.0316,-0.0314,-0.0331,-0.0338,-0.0337,-0.0356,-0.0357,-0.0363,-0.0371,-0.0375,-0.0351,-0.0365,-0.0352,-0.0333,-0.0329,-0.0326,-0.0323,-0.0315,-0.0311,-0.0351,-0.0351,-0.0351,0,-0.0257,-0.0259,-0.0278,-0.0277,-0.0281,-0.0304,-0.0299,-0.0306,-0.0319,-0.0322,-0.0331,-0.034,-0.0349,-0.0346,-0.0341,-0.0344,-0.0343,-0.035,-0.0325,-0.0322,-0.032,-0.0312,-0.0309,-0.0349,-0.0349,-0.0349,-0.0349,0,-0.0232,-0.0233,-0.0227,-0.024,-0.0244,-0.024,-0.0259,-0.0261,-0.0274,-0.0285,-0.0284,-0.0297,-0.0304,-0.0305,-0.0317,-0.0304,-0.0309,-0.0321,-0.0337,-0.0314,-0.0307,-0.0304,-0.0347,-0.0347,-0.0348,-0.0348,0,0,-0.0182,-0.0206,-0.0204,-0.021,-0.0227,-0.0228,-0.0226,-0.0234,-0.0235,-0.0244,-0.0244,-0.0249,-0.0261,-0.0266,-0.028,-0.0277,-0.0257,-0.029,-0.0291,-0.0283,-0.0244,-0.0234,-0.023,-0.0267,-0.0266,-0.0266,-0.0243,0,-0.0156,-0.0154,-0.0172,-0.0165,-0.0167,-0.019,-0.0189,-0.0199,-0.021,-0.0213,-0.0226,-0.0229,-0.0245,-0.0249,-0.0247,-0.026,-0.0249,-0.0262,-0.0266,-0.0266,-0.0262,-0.0226,-0.0215,-0.0193,-0.024,-0.024,-0.024,0,-0.0124,-0.0132,-0.0126,-0.0143,-0.0145,-0.0143,-0.0152,-0.0155,-0.0167,-0.0176,-0.0183,-0.0198,-0.0199,-0.0215,-0.0215,-0.0224,-0.0227,-0.0234,-0.0233,-0.0234,-0.0251,-0.0225,-0.0186,-0.0182,-0.0235,-0.0236,-0.0236,0,-0.0088,-0.0097,-0.0095,-0.01,-0.012,-0.0119,-0.0127,-0.014,-0.0144,-0.0153,-0.0155,-0.0164,-0.0168,-0.0174,-0.0192,-0.0202,-0.0191,-0.0208,-0.0198,-0.0197,-0.0194,-0.0193,-0.0154,-0.0197,-0.0197,-0.0197,-0.0197,0,-0.0057,-0.0052,-0.0079,-0.0077,-0.0073,-0.0094,-0.0089,-0.01,-0.0112,-0.0113,-0.0134,-0.0135,-0.0158,-0.0162,-0.0176,-0.0175,-0.0177,-0.0184,-0.0187,-0.0181,-0.018,-0.0183,-0.0185,-0.0196,-0.0196,-0.0196,-0.0196,0,-0.0015,-0.0033,-0.0032,-0.0052,-0.0057,-0.0053,-0.007,-0.007,-0.0083,-0.0085,-0.0086,-0.0107,-0.0112,-0.0131,-0.0141,-0.0151,-0.0145,-0.0152,-0.0141,-0.0143,-0.0131,-0.0132,-0.0092,-0.0087,-0.0133,-0.0133,-0.0132,0,0.0007,0.001,-0.001,-0.0013,-0.002,-0.0024,-0.0028,-0.005,-0.0053,-0.0068,-0.0066,-0.0073,-0.008,-0.0088,-0.0104,-0.0112,-0.012,-0.0105,-0.0121,-0.0116,-0.0119,-0.0119,-0.0119,-0.0101,-0.0101,-0.01,-0.01,0,0.0048,0.0038,0.0033,0.0024,0.0019,0.0011,0.0002,0.0001,-0.0023,-0.0027,-0.0033,-0.0038,-0.0049,-0.0056,-0.0067,-0.0077,-0.0092,-0.0095,-0.0093,-0.0086,-0.008,-0.0083,-0.0131,-0.0095,-0.0096,-0.0096,-0.0096,-0.0097,0.008,0.0082,0.0068,0.0062,0.0052,0.0044,0.0043,0.0029,0.0024,0.0013,0.0001,-0.0004,-0.0018,-0.0035,-0.0043,-0.0047,-0.0056,-0.0053,-0.0052,-0.0051,-0.0048,-0.008,-0.0049,-0.005,-0.005,-0.005,-0.005,0,0.012,0.011,0.0104,0.0092,0.0087,0.0072,0.006,0.0057,0.0054,0.0042,0.0035,0.0028,0.002,0.0003,-0.0007,-0.0007,-0.0014,-0.0008,-0.0008,-0.001,-0.004,-0.004,-0.0002,-0.0002,-0.0002,-0.0002,-0.0002,-0.0002,0.0141,0.0142,0.0131,0.0127,0.0116,0.0111,0.0106,0.0098,0.0088,0.0081,0.0074,0.0063,0.0048,0.0038,0.003,0.0025,0.0023,0.0031,0.0024,-0.0003,-0.0008,-0.0012,-0.0013,0.003,0.003,0.0054,0.0054,0.0054]}]]